Погода в Якакенте

Турция     41°37′52″N   35°31′49″E
темп.,
°C
ветер,
м/с
пор.,
м/с
влажн.,
%
обл.,
%
осадки,
мм/ч
давл.,
гПа
погр.,
м
29 ноября, пн
пн2900:00+15вюв2279100 0.0 101211
03:00+15юв457377 0.0 101164
06:00+15юв44762 0.0 101050
09:00+16ююз45693 0.0 100951
12:00+19ю5660100 0.0 1007121
15:00+21ююз6749100 0.0 100595
18:00+20ю4652100 0.0 100485
21:00+19ююв1354100 0.0 1004105
30 ноября, вт
вт3000:00+15сз5786100 0.0 1007145
03:00+14ссз3582100 0.1 1009168
06:00+13ююз3486100 3.4 1009133
09:00+14юв898698 4.1 1008252
12:00+15вюв8108336 0.0 1003242
15:00+16вюв710750 0.1 996327
18:00+16зюз172448100 0.8 999841
21:00+14зюз12155966 1.0 1002762
1 декабря, ср
ср100:00+12зсз10155562 0.0 10071805
03:00+9сз15147298 0.1 1011982
06:00+9сз1010669 0.0 1012643
09:00+10зсз44593 0.0 1013559
12:00+10ссв11512 0.0 1013328
15:00+10с545998 0.1 1013879
18:00+10ююв115590 0.1 1014791
21:00+11ююз235245 0.1 1015465
2 декабря, чт
чт200:00+10юз564611 0.0 1016405
03:00+10зюз33438 0.0 1017335
06:00+10ююз44480 0.0 1018263
09:00+10ююз22465 0.0 1019217
12:00+12вюв22400 0.0 1018366
15:00+13вюв22460 0.0 1016187
18:00+13ююз34505 0.0 1017112
21:00+12ю34465 0.0 1016161
3 декабря, пт
пт300:00+12ююз444785 0.0 1015173
03:00+12юз56495 0.0 1015196
06:00+12юз44495 0.0 1015175
09:00+12ююз444999 0.0 1016159
12:00+14ююз22525 0.0 101590
15:00+15ююз2353100 0.0 101465
18:00+14ююз56555 0.0 101473
21:00+13ююз56560 0.0 101487